Thunderstorms From: 22-05-2018 15:00 Until: 23-05-2018 15:00 warning for: Thunderstorms Level: Yellow info button

Although rather usual in this region, locally or potentially dangerous phenomena are expected. (such as local winds, summer thunderstorms, rising streams or high waves) Be aware and pay attention to the latest weather updates, especially if you carry out activities exposed to weather or close to a stream or shoreline. 


Meteo18 Weather Cam more information Meteo18 Weather Cam


warning for Thunderstorms more information blitzortung!


Rain radar more information rain snow radar


Visit our other weather sites:

Template documentation
and downloads

And another site



Weather Underground History page Text

Daily Summary for February 5, 2018 Units:  English    Metric   Both
« Previous Day
Next Day »
Daily Weekly Monthly Yearly Custom
  High: Low: Average:
Temperature: TemperatureC °F -2.3 °F -0.8 °F
Dew Point: DewpointC °F -3.9 °F -2.1 °F
Humidity: Humidity % 80 % 91 %
Wind Speed: WindSpeedKMH mph 0.0 mph 6.9 mph
Wind Gust: WindSpeedGustKMH mph - -
Wind:- - East
Pressure: PressurehPa in 1013.1 in -
Precipitation: 0.0 in    
Historical Graphs
 
 
Tabular Data for February 5, 2018
Time Temperature Dew Point Pressure Wind Wind Speed Wind Gust Humidity Rainfall Rate (Hourly)
TemperatureC °F DewpointC °F PressurehPa in Calm     Humidity % HourlyPrecipMM in
00:05 -0.4 °F -2.0 °F 1019.5 in NE 6.4 mph 17.7 mph 89 % 0.0 in
00:11 -0.5 °F -2.1 °F 1019.5 in NNE 7.9 mph 22.5 mph 89 % 0.0 in
00:17 -0.6 °F -2.2 °F 1019.5 in NNE 11.1 mph 17.7 mph 89 % 0.0 in
00:23 -0.6 °F -2.2 °F 1019.5 in ENE 7.9 mph 22.5 mph 89 % 0.0 in
00:29 -0.6 °F -2.3 °F 1019.5 in NNE 19.5 mph 27.4 mph 88 % 0.0 in
00:35 -0.6 °F -2.5 °F 1019.5 in NNE 13.0 mph 25.7 mph 87 % 0.0 in
00:41 -0.7 °F -2.7 °F 1019.5 in NE 17.7 mph 24.1 mph 86 % 0.0 in
00:47 -0.7 °F -2.6 °F 1019.5 in NE 9.7 mph 16.1 mph 87 % 0.0 in
00:53 -0.7 °F -2.7 °F 1019.5 in NNE 17.7 mph 20.9 mph 86 % 0.0 in
00:59 -0.7 °F -2.7 °F 1019.5 in NNE 16.3 mph 29.0 mph 86 % 0.0 in
01:05 -0.8 °F -3.0 °F 1019.5 in NNE 13.0 mph 24.1 mph 85 % 0.0 in
01:11 -0.8 °F -3.2 °F 1019.5 in NNE 22.7 mph 24.1 mph 84 % 0.0 in
01:17 -0.8 °F -3.2 °F 1019.5 in NE 13.0 mph 22.5 mph 84 % 0.0 in
01:23 -0.8 °F -3.2 °F 1019.2 in NE 16.3 mph 24.1 mph 84 % 0.0 in
01:29 -0.8 °F -3.5 °F 1019.2 in NNE 9.7 mph 24.1 mph 82 % 0.0 in
01:35 -0.8 °F -3.7 °F 1019.5 in North 13.0 mph 29.0 mph 81 % 0.0 in
01:41 -0.8 °F -3.7 °F 1019.5 in NNE 20.9 mph 29.0 mph 81 % 0.0 in
01:47 -0.9 °F -3.7 °F 1019.5 in NE 14.3 mph 30.6 mph 81 % 0.0 in
01:53 -0.9 °F -3.7 °F 1019.5 in NE 9.7 mph 30.6 mph 81 % 0.0 in
01:59 -0.9 °F -3.7 °F 1019.5 in NNE 25.9 mph 35.4 mph 81 % 0.0 in
02:05 -0.9 °F -3.9 °F 1019.5 in NNE 20.9 mph 24.1 mph 80 % 0.0 in
02:11 -0.9 °F -3.9 °F 1019.5 in NE 17.7 mph 29.0 mph 80 % 0.0 in
02:17 -1.0 °F -3.8 °F 1019.5 in NE 20.9 mph 20.9 mph 81 % 0.0 in
02:23 -1.1 °F -3.8 °F 1019.5 in NE 11.1 mph 24.1 mph 82 % 0.0 in
02:29 -1.1 °F -3.8 °F 1019.2 in NE 17.7 mph 30.6 mph 82 % 0.0 in
02:35 -1.2 °F -3.9 °F 1019.2 in ENE 14.3 mph 32.2 mph 82 % 0.0 in
02:41 -1.2 °F -3.9 °F 1019.2 in NNE 20.9 mph 25.7 mph 82 % 0.0 in
02:47 -1.2 °F -3.7 °F 1019.2 in NNE 13.0 mph 27.4 mph 83 % 0.0 in
02:53 -1.3 °F -3.8 °F 1018.8 in NNE 11.1 mph 27.4 mph 83 % 0.0 in
02:59 -1.3 °F -3.8 °F 1018.8 in NNE 16.3 mph 27.4 mph 83 % 0.0 in
03:05 -1.3 °F -3.7 °F 1018.8 in NE 24.1 mph 24.1 mph 84 % 0.0 in
03:11 -1.4 °F -3.9 °F 1018.8 in NE 16.3 mph 27.4 mph 83 % 0.0 in
03:17 -1.4 °F -3.8 °F 1018.8 in NNE 24.1 mph 27.4 mph 84 % 0.0 in
03:23 -1.4 °F -3.9 °F 1019.2 in NNE 16.3 mph 27.4 mph 83 % 0.0 in
03:29 -1.4 °F -3.8 °F 1019.2 in ENE 13.0 mph 19.3 mph 84 % 0.0 in
03:35 -1.4 °F -3.8 °F 1019.2 in ENE 17.7 mph 27.4 mph 84 % 0.0 in
03:41 -1.4 °F -3.8 °F 1019.2 in NNE 7.9 mph 17.7 mph 84 % 0.0 in
03:47 -1.4 °F -3.9 °F 1019.2 in North 9.7 mph 22.5 mph 83 % 0.0 in
03:53 -1.4 °F -3.8 °F 1019.2 in NNE 13.0 mph 14.5 mph 84 % 0.0 in
03:59 -1.4 °F -3.8 °F 1018.8 in North 17.7 mph 27.4 mph 84 % 0.0 in
04:05 -1.4 °F -3.8 °F 1019.2 in NNE 4.7 mph 16.1 mph 84 % 0.0 in
04:11 -1.4 °F -3.6 °F 1018.8 in NE 9.7 mph 17.7 mph 85 % 0.0 in
04:17 -1.4 °F -3.6 °F 1018.8 in North 6.4 mph 24.1 mph 85 % 0.0 in
04:23 -1.4 °F -3.4 °F 1018.8 in NNE 13.0 mph 27.4 mph 86 % 0.0 in
04:29 -1.5 °F -3.5 °F 1018.8 in NNE 20.9 mph 20.9 mph 86 % 0.0 in
04:35 -1.5 °F -3.5 °F 1018.8 in NNW 9.7 mph 25.7 mph 86 % 0.0 in
04:41 -1.6 °F -3.6 °F 1018.8 in NE 4.7 mph 17.7 mph 86 % 0.0 in
04:47 -1.6 °F -3.5 °F 1018.8 in NE 6.4 mph 22.5 mph 87 % 0.0 in
04:53 -1.5 °F -3.4 °F 1018.8 in East 4.7 mph 16.1 mph 87 % 0.0 in
04:59 -1.6 °F -3.5 °F 1018.8 in NNE 7.9 mph 17.7 mph 87 % 0.0 in
05:05 -1.6 °F -3.5 °F 1018.8 in ENE 4.7 mph 16.1 mph 87 % 0.0 in
05:11 -1.6 °F -3.5 °F 1018.8 in NE 3.2 mph 20.9 mph 87 % 0.0 in
05:17 -1.6 °F -3.5 °F 1018.8 in NNE 9.7 mph 19.3 mph 87 % 0.0 in
05:23 -1.6 °F -3.3 °F 1018.8 in North 4.7 mph 16.1 mph 88 % 0.0 in
05:29 -1.6 °F -3.3 °F 1018.8 in NW 7.9 mph 19.3 mph 88 % 0.0 in
05:35 -1.6 °F -3.3 °F 1018.5 in NNE 9.7 mph 19.3 mph 88 % 0.0 in
05:41 -1.6 °F -3.3 °F 1018.5 in NE 6.4 mph 22.5 mph 88 % 0.0 in
05:47 -1.6 °F -3.3 °F 1018.5 in ENE 7.9 mph 20.9 mph 88 % 0.0 in
05:53 -1.6 °F -3.3 °F 1018.5 in NNW 11.1 mph 20.9 mph 88 % 0.0 in
05:59 -1.7 °F -3.3 °F 1018.5 in NW 3.2 mph 20.9 mph 89 % 0.0 in
06:05 -1.7 °F -3.3 °F 1018.5 in NNE 9.7 mph 22.5 mph 89 % 0.0 in
06:11 -1.7 °F -3.3 °F 1018.5 in North 6.4 mph 17.7 mph 89 % 0.0 in
06:17 -1.7 °F -3.3 °F 1018.5 in NW 13.0 mph 20.9 mph 89 % 0.0 in
06:23 -1.7 °F -3.3 °F 1018.5 in NNE 4.7 mph 17.7 mph 89 % 0.0 in
06:29 -1.7 °F -3.4 °F 1018.5 in NNE 9.7 mph 27.4 mph 88 % 0.0 in
06:35 -1.8 °F -3.4 °F 1018.5 in NNW 6.4 mph 22.5 mph 89 % 0.0 in
06:41 -1.8 °F -3.4 °F 1018.5 in North 6.4 mph 20.9 mph 89 % 0.0 in
06:47 -1.8 °F -3.4 °F 1018.2 in North 9.7 mph 19.3 mph 89 % 0.0 in
06:53 -1.8 °F -3.4 °F 1018.2 in NE 4.7 mph 22.5 mph 89 % 0.0 in
06:59 -1.8 °F -3.4 °F 1018.2 in NNW 1.4 mph 22.5 mph 89 % 0.0 in
07:05 -1.9 °F -3.5 °F 1018.2 in NE 13.0 mph 20.9 mph 89 % 0.0 in
07:11 -1.9 °F -3.3 °F 1018.2 in North 13.0 mph 17.7 mph 90 % 0.0 in
07:18 -1.9 °F -3.3 °F 1018.2 in North 6.4 mph 20.9 mph 90 % 0.0 in
07:24 -1.9 °F -3.3 °F 1018.2 in NE 11.1 mph 17.7 mph 90 % 0.0 in
07:30 -2.0 °F -3.4 °F 1018.2 in North 17.7 mph 17.7 mph 90 % 0.0 in
07:36 -2.1 °F -3.5 °F 1018.2 in NW 9.7 mph 20.9 mph 90 % 0.0 in
07:42 -2.1 °F -3.5 °F 1018.2 in NNW 9.7 mph 16.1 mph 90 % 0.0 in
07:48 -2.1 °F -3.4 °F 1018.2 in North 3.2 mph 17.7 mph 91 % 0.0 in
07:54 -2.1 °F -3.5 °F 1018.2 in NNW 1.4 mph 17.7 mph 90 % 0.0 in
08:00 -2.1 °F -3.4 °F 1018.2 in NNW 7.9 mph 9.7 mph 91 % 0.0 in
08:06 -2.2 °F -3.5 °F 1018.2 in North 1.4 mph 11.3 mph 91 % 0.0 in
08:12 -2.2 °F -3.5 °F 1018.2 in NNW 14.3 mph 25.7 mph 91 % 0.0 in
08:18 -2.2 °F -3.5 °F 1018.2 in NE 1.4 mph 19.3 mph 91 % 0.0 in
08:24 -2.2 °F -3.5 °F 1018.5 in North 11.1 mph 19.3 mph 91 % 0.0 in
08:30 -2.2 °F -3.5 °F 1018.5 in NNW 9.7 mph 12.9 mph 91 % 0.0 in
08:36 -2.2 °F -3.5 °F 1018.2 in NNW 13.0 mph 17.7 mph 91 % 0.0 in
08:42 -2.2 °F -3.5 °F 1018.2 in NNW 9.7 mph 16.1 mph 91 % 0.0 in
08:48 -2.2 °F -3.5 °F 1018.2 in NW 9.7 mph 11.3 mph 91 % 0.0 in
08:54 -2.3 °F -3.6 °F 1018.2 in NE 4.7 mph 17.7 mph 91 % 0.0 in
09:00 -2.2 °F -3.5 °F 1018.2 in North 13.0 mph 16.1 mph 91 % 0.0 in
09:06 -2.2 °F -3.5 °F 1018.2 in North 4.7 mph 16.1 mph 91 % 0.0 in
09:12 -2.2 °F -3.3 °F 1018.2 in ENE 7.9 mph 9.7 mph 92 % 0.0 in
09:18 -2.2 °F -3.3 °F 1018.5 in NNW 14.3 mph 16.1 mph 92 % 0.0 in
09:24 -2.2 °F -3.3 °F 1018.2 in NNW 13.0 mph 17.7 mph 92 % 0.0 in
09:30 -2.2 °F -3.3 °F 1018.2 in NE 7.9 mph 14.5 mph 92 % 0.0 in
09:36 -2.2 °F -3.3 °F 1018.2 in NE 6.4 mph 12.9 mph 92 % 0.0 in
09:42 -2.1 °F -3.2 °F 1018.5 in NNE 9.7 mph 12.9 mph 92 % 0.0 in
09:48 -2.1 °F -3.2 °F 1018.2 in Calm   11.3 mph 92 % 0.0 in
09:54 -2.1 °F -3.2 °F 1018.5 in NE 9.7 mph 12.9 mph 92 % 0.0 in
10:00 -2.0 °F -3.1 °F 1018.5 in NNW 1.4 mph 9.7 mph 92 % 0.0 in
10:06 -1.9 °F -3.0 °F 1018.5 in NNE 9.7 mph 9.7 mph 92 % 0.0 in
10:12 -1.9 °F -3.2 °F 1018.5 in NNW 9.7 mph 16.1 mph 91 % 0.0 in
10:18 -1.9 °F -3.2 °F 1018.5 in North 9.7 mph 12.9 mph 91 % 0.0 in
10:24 -1.8 °F -3.1 °F 1018.5 in NNW 7.9 mph 14.5 mph 91 % 0.0 in
10:30 -1.8 °F -3.1 °F 1018.5 in NE 7.9 mph 12.9 mph 91 % 0.0 in
10:36 -1.8 °F -3.1 °F 1018.5 in NNE 4.7 mph 16.1 mph 91 % 0.0 in
10:42 -1.7 °F -3.0 °F 1018.2 in NNE 7.9 mph 11.3 mph 91 % 0.0 in
10:48 -1.6 °F -2.9 °F 1018.2 in NNE 4.7 mph 14.5 mph 91 % 0.0 in
10:54 -1.7 °F -3.0 °F 1018.2 in North 1.4 mph 12.9 mph 91 % 0.0 in
11:00 -1.6 °F -2.9 °F 1017.8 in ENE 4.7 mph 16.1 mph 91 % 0.0 in
11:06 -1.6 °F -2.9 °F 1018.2 in NE 13.0 mph 16.1 mph 91 % 0.0 in
11:12 -1.5 °F -2.8 °F 1018.2 in North 9.7 mph 12.9 mph 91 % 0.0 in
11:18 -1.4 °F -2.7 °F 1018.2 in ENE 9.7 mph 16.1 mph 91 % 0.0 in
11:24 -1.5 °F -2.8 °F 1018.2 in NNE 6.4 mph 11.3 mph 91 % 0.0 in
11:30 -1.4 °F -2.7 °F 1018.2 in NE 4.7 mph 11.3 mph 91 % 0.0 in
11:36 -1.4 °F -2.7 °F 1018.2 in North 4.7 mph 9.7 mph 91 % 0.0 in
11:42 -1.4 °F -2.7 °F 1018.2 in NNE 6.4 mph 11.3 mph 91 % 0.0 in
11:48 -1.3 °F -2.6 °F 1018.2 in NNE 7.9 mph 11.3 mph 91 % 0.0 in
11:54 -1.3 °F -2.6 °F 1018.2 in ENE 3.2 mph 11.3 mph 91 % 0.0 in
12:00 -1.3 °F -2.6 °F 1018.2 in NE 7.9 mph 9.7 mph 91 % 0.0 in
12:06 -1.3 °F -2.6 °F 1018.2 in North 1.4 mph 6.4 mph 91 % 0.0 in
12:12 -1.2 °F -2.5 °F 1017.8 in NNE 7.9 mph 8.0 mph 91 % 0.0 in
12:18 -1.2 °F -2.5 °F 1017.8 in NE 4.7 mph 8.0 mph 91 % 0.0 in
12:24 -1.2 °F -2.5 °F 1017.8 in ENE 1.4 mph 8.0 mph 91 % 0.0 in
12:30 -1.1 °F -2.2 °F 1017.8 in NE 3.2 mph 9.7 mph 92 % 0.0 in
12:36 -1.1 °F -2.2 °F 1017.8 in North 3.2 mph 9.7 mph 92 % 0.0 in
12:42 -1.1 °F -2.2 °F 1017.8 in Calm   1.6 mph 92 % 0.0 in
12:48 -1.1 °F -2.2 °F 1017.8 in NNE 3.2 mph 8.0 mph 92 % 0.0 in
12:54 -1.0 °F -2.1 °F 1017.8 in NE 6.4 mph 8.0 mph 92 % 0.0 in
13:00 -1.0 °F -2.1 °F 1017.5 in NNE 4.7 mph 8.0 mph 92 % 0.0 in
13:06 -0.9 °F -2.0 °F 1017.5 in NNE 1.4 mph 11.3 mph 92 % 0.0 in
13:12 -0.9 °F -2.0 °F 1017.5 in NNE 4.7 mph 8.0 mph 92 % 0.0 in
13:18 -0.9 °F -2.0 °F 1017.2 in North 3.2 mph 12.9 mph 92 % 0.0 in
13:24 -0.9 °F -2.0 °F 1017.2 in NE 6.4 mph 11.3 mph 92 % 0.0 in
13:30 -0.8 °F -1.9 °F 1017.2 in NNE 1.4 mph 4.8 mph 92 % 0.0 in
13:36 -0.7 °F -1.8 °F 1017.2 in North 7.9 mph 9.7 mph 92 % 0.0 in
13:42 -0.7 °F -1.8 °F 1016.8 in Calm   11.3 mph 92 % 0.0 in
13:48 -0.7 °F -1.8 °F 1016.8 in NE 1.4 mph 9.7 mph 92 % 0.0 in
13:54 -0.7 °F -1.8 °F 1016.8 in NE 3.2 mph 9.7 mph 92 % 0.0 in
14:00 -0.6 °F -1.7 °F 1016.8 in NNE 4.7 mph 9.7 mph 92 % 0.0 in
14:06 -0.6 °F -1.7 °F 1016.8 in North 9.7 mph 11.3 mph 92 % 0.0 in
14:12 -0.6 °F -1.7 °F 1016.8 in NE 4.7 mph 12.9 mph 92 % 0.0 in
14:18 -0.5 °F -1.6 °F 1016.8 in NNE 4.7 mph 9.7 mph 92 % 0.0 in
14:24 -0.4 °F -1.5 °F 1016.5 in ENE 3.2 mph 9.7 mph 92 % 0.0 in
14:30 -0.4 °F -1.5 °F 1016.5 in NNE 3.2 mph 11.3 mph 92 % 0.0 in
14:36 -0.3 °F -1.4 °F 1016.5 in NNE 3.2 mph 9.7 mph 92 % 0.0 in
14:42 -0.4 °F -1.5 °F 1016.1 in North 1.4 mph 12.9 mph 92 % 0.0 in
14:48 -0.3 °F -1.4 °F 1016.5 in North 1.4 mph 17.7 mph 92 % 0.0 in
14:54 -0.3 °F -1.4 °F 1016.1 in NNE 3.2 mph 17.7 mph 92 % 0.0 in
15:00 -0.3 °F -1.4 °F 1016.1 in North 6.4 mph 14.5 mph 92 % 0.0 in
15:06 -0.2 °F -1.3 °F 1016.1 in NNW 6.4 mph 11.3 mph 92 % 0.0 in
15:12 -0.2 °F -1.3 °F 1016.1 in North 3.2 mph 11.3 mph 92 % 0.0 in
15:18 -0.1 °F -1.2 °F 1016.1 in NNE 7.9 mph 16.1 mph 92 % 0.0 in
15:24 -0.1 °F -1.2 °F 1015.8 in NE 6.4 mph 16.1 mph 92 % 0.0 in
15:30 -0.1 °F -1.2 °F 1015.8 in NNW 9.7 mph 12.9 mph 92 % 0.0 in
15:36 -0.1 °F -1.2 °F 1015.8 in ENE 9.7 mph 12.9 mph 92 % 0.0 in
15:42 0.0 °F -1.1 °F 1015.8 in North 7.9 mph 12.9 mph 92 % 0.0 in
15:48 0.1 °F -1.0 °F 1015.8 in NNE 3.2 mph 11.3 mph 92 % 0.0 in
15:54 0.1 °F -1.0 °F 1015.5 in NE 9.7 mph 19.3 mph 92 % 0.0 in
16:00 0.1 °F -1.0 °F 1015.5 in NNE 6.4 mph 12.9 mph 92 % 0.0 in
16:06 0.1 °F -1.0 °F 1015.5 in North 3.2 mph 14.5 mph 92 % 0.0 in
16:12 0.1 °F -1.0 °F 1015.5 in NNE 13.0 mph 13.0 mph 92 % 0.0 in
16:18 0.1 °F -1.0 °F 1015.5 in NNE 7.9 mph 11.3 mph 92 % 0.0 in
16:24 0.2 °F -0.9 °F 1015.1 in NW 3.2 mph 12.9 mph 92 % 0.0 in
16:30 0.1 °F -1.0 °F 1015.1 in NNW 3.2 mph 11.3 mph 92 % 0.0 in
16:36 0.1 °F -1.0 °F 1015.1 in NNE 11.1 mph 14.5 mph 92 % 0.0 in
16:42 0.2 °F -0.9 °F 1015.1 in NNE 3.2 mph 12.9 mph 92 % 0.0 in
16:48 0.2 °F -0.9 °F 1015.1 in North 4.7 mph 16.1 mph 92 % 0.0 in
16:54 0.2 °F -0.9 °F 1015.1 in NE 14.3 mph 16.1 mph 92 % 0.0 in
17:00 0.2 °F -0.9 °F 1015.1 in NNE 7.9 mph 8.0 mph 92 % 0.0 in
17:06 0.2 °F -0.9 °F 1015.1 in NNE 1.4 mph 9.7 mph 92 % 0.0 in
17:12 0.3 °F -0.8 °F 1015.1 in NE 3.2 mph 8.0 mph 92 % 0.0 in
17:18 0.3 °F -0.8 °F 1015.1 in North 1.4 mph 8.0 mph 92 % 0.0 in
17:24 0.3 °F -0.8 °F 1015.1 in NNE 3.2 mph 6.4 mph 92 % 0.0 in
17:30 0.3 °F -0.8 °F 1015.1 in NE 9.7 mph 12.9 mph 92 % 0.0 in
17:36 0.3 °F -0.8 °F 1015.1 in NNE 7.9 mph 9.7 mph 92 % 0.0 in
17:42 0.3 °F -0.8 °F 1015.1 in NNE 6.4 mph 9.7 mph 92 % 0.0 in
17:48 0.3 °F -0.7 °F 1015.1 in ENE 7.9 mph 9.7 mph 93 % 0.0 in
17:54 0.3 °F -0.7 °F 1015.1 in NNE 3.2 mph 8.0 mph 93 % 0.0 in
18:01 0.3 °F -0.7 °F 1015.1 in NE 6.4 mph 9.7 mph 93 % 0.0 in
18:07 0.2 °F -0.8 °F 1015.1 in Calm   9.7 mph 93 % 0.0 in
18:13 0.2 °F -0.8 °F 1014.8 in NNE 4.7 mph 6.4 mph 93 % 0.0 in
18:19 0.2 °F -0.7 °F 1014.8 in NE 3.2 mph 8.0 mph 94 % 0.0 in
18:25 0.2 °F -0.7 °F 1014.8 in NE 6.4 mph 8.0 mph 94 % 0.0 in
18:31 0.1 °F -0.8 °F 1014.8 in ENE 1.4 mph 9.7 mph 94 % 0.0 in
18:37 0.1 °F -0.8 °F 1014.8 in NNE 4.7 mph 9.7 mph 94 % 0.0 in
18:43 0.0 °F -0.7 °F 1014.8 in NNE 1.4 mph 8.0 mph 95 % 0.0 in
18:49 0.0 °F -0.7 °F 1014.8 in NNE 7.9 mph 8.0 mph 95 % 0.0 in
18:55 0.0 °F -0.7 °F 1014.8 in NNE 1.4 mph 6.4 mph 95 % 0.0 in
19:01 0.0 °F -0.7 °F 1014.8 in North 3.2 mph 6.4 mph 95 % 0.0 in
19:07 0.0 °F -0.6 °F 1014.8 in NNE 6.4 mph 6.4 mph 96 % 0.0 in
19:13 0.0 °F -0.6 °F 1014.8 in North 4.7 mph 4.8 mph 96 % 0.0 in
19:19 0.0 °F -0.6 °F 1014.8 in NNE 3.2 mph 6.4 mph 96 % 0.0 in
19:25 0.0 °F -0.6 °F 1014.8 in NNE 1.4 mph 6.4 mph 96 % 0.0 in
19:31 0.0 °F -0.6 °F 1014.4 in NE 7.9 mph 12.9 mph 96 % 0.0 in
19:37 0.0 °F -0.6 °F 1014.4 in NNE 3.2 mph 6.4 mph 96 % 0.0 in
19:43 0.1 °F -0.5 °F 1014.4 in Calm   3.2 mph 96 % 0.0 in
19:49 0.1 °F -0.5 °F 1014.4 in NNE 4.7 mph 9.7 mph 96 % 0.0 in
19:55 0.1 °F -0.5 °F 1014.4 in NE 1.4 mph 6.4 mph 96 % 0.0 in
20:01 0.1 °F -0.5 °F 1014.4 in NE 3.2 mph 8.0 mph 96 % 0.0 in
20:07 0.1 °F -0.5 °F 1014.4 in NE 1.4 mph 6.4 mph 96 % 0.0 in
20:13 0.1 °F -0.5 °F 1014.4 in NNE 1.4 mph 9.7 mph 96 % 0.0 in
20:19 0.1 °F -0.5 °F 1014.1 in NNE 3.2 mph 11.3 mph 96 % 0.0 in
20:25 0.1 °F -0.5 °F 1014.1 in Calm   8.0 mph 96 % 0.0 in
20:31 0.1 °F -0.5 °F 1014.1 in ENE 3.2 mph 6.4 mph 96 % 0.0 in
20:37 0.1 °F -0.5 °F 1014.1 in NNE 3.2 mph 6.4 mph 96 % 0.0 in
20:43 0.1 °F -0.3 °F 1014.1 in NE 3.2 mph 3.2 mph 97 % 0.0 in
20:49 0.1 °F -0.3 °F 1014.1 in NNE 3.2 mph 6.4 mph 97 % 0.0 in
20:55 0.1 °F -0.3 °F 1014.1 in Calm   1.6 mph 97 % 0.0 in
21:01 0.1 °F -0.3 °F 1014.1 in Calm   4.8 mph 97 % 0.0 in
21:07 0.1 °F -0.3 °F 1014.1 in Calm   4.8 mph 97 % 0.0 in
21:13 0.1 °F -0.3 °F 1014.1 in Calm   6.4 mph 97 % 0.0 in
21:19 0.1 °F -0.3 °F 1014.1 in North 1.4 mph 6.4 mph 97 % 0.0 in
21:25 0.2 °F -0.2 °F 1014.1 in North 1.4 mph 6.4 mph 97 % 0.0 in
21:31 0.1 °F -0.3 °F 1014.1 in NE 1.4 mph 4.8 mph 97 % 0.0 in
21:37 0.1 °F -0.3 °F 1014.1 in NNE 1.4 mph 4.8 mph 97 % 0.0 in
21:43 0.1 °F -0.3 °F 1014.1 in NNW 1.4 mph 6.4 mph 97 % 0.0 in
21:49 0.1 °F -0.3 °F 1014.1 in NNW 1.4 mph 4.8 mph 97 % 0.0 in
21:55 0.1 °F -0.3 °F 1014.1 in Calm   6.4 mph 97 % 0.0 in
22:01 0.1 °F -0.3 °F 1014.1 in NNE 3.2 mph 6.4 mph 97 % 0.0 in
22:07 0.1 °F -0.3 °F 1013.8 in Calm   4.8 mph 97 % 0.0 in
22:13 0.1 °F -0.3 °F 1013.8 in NNW 3.2 mph 4.8 mph 97 % 0.0 in
22:19 0.1 °F -0.3 °F 1013.8 in Calm   4.8 mph 97 % 0.0 in
22:25 0.1 °F -0.3 °F 1013.8 in NNE 3.2 mph 4.8 mph 97 % 0.0 in
22:31 0.1 °F -0.3 °F 1013.8 in NNE 1.4 mph 6.4 mph 97 % 0.0 in
22:37 0.1 °F -0.3 °F 1013.8 in North 1.4 mph 3.2 mph 97 % 0.0 in
22:43 0.1 °F -0.3 °F 1013.4 in Calm   3.2 mph 97 % 0.0 in
22:49 0.1 °F -0.3 °F 1013.4 in Calm   3.2 mph 97 % 0.0 in
22:55 0.1 °F -0.3 °F 1013.4 in Calm   4.8 mph 97 % 0.0 in
23:01 0.1 °F -0.3 °F 1013.4 in North 3.2 mph 3.2 mph 97 % 0.0 in
23:07 0.1 °F -0.3 °F 1013.1 in NW 1.4 mph 4.8 mph 97 % 0.0 in
23:13 0.1 °F -0.3 °F 1013.1 in North 3.2 mph 3.2 mph 97 % 0.0 in
23:19 0.1 °F -0.3 °F 1013.1 in North 1.4 mph 3.2 mph 97 % 0.0 in
23:25 0.1 °F -0.3 °F 1013.1 in NNE 3.2 mph 4.8 mph 97 % 0.0 in
23:31 0.1 °F -0.3 °F 1013.1 in Calm   3.2 mph 97 % 0.0 in
23:37 0.1 °F -0.3 °F 1013.1 in Calm   1.6 mph 97 % 0.0 in
23:43 0.1 °F -0.3 °F 1013.1 in Calm   3.2 mph 97 % 0.0 in
23:49 0.1 °F -0.3 °F 1013.1 in Calm     97 % 0.0 in
23:55 0.0 °F -0.4 °F 1013.1 in NNE 1.4 mph 3.2 mph 97 % 0.0 in
Meteo18
Compliments of Weather Underground - 4 mb

Script developed by  Jim McMurry - jmcmurry@mwt.net Adapted for the template by  Wim van der Kuil - Leuven-Template.eu

You find our weather info also at:

European Weather Network

Weather Underground

Equipment we use:

Weather-station
Davis Vue

Weather-program
Meteobridge

Weather-server
Raspberry PI 2 B+

Provider
1 and 1

Davis Vue

Meteobridge

Raspberry PI 2 B+

1 and 1